Location: Agua Amarilla
(10.0342°N, 66.8490°W)
Time: 21:06:31
(UTC+00:00)

Cosmos 1707 - Pass Details

Date: 26 June 2022
Orbit: 511 x 522 km, 82.5° (Epoch: 14 August)

Event Time Altitude Azimuth Distance (km) Brightness Sun altitude
Rises 23:12:29 0° 169° (S) 2,626 5.9 -5.5°
Reaches altitude 10° 23:14:44 10° 160° (SSE) 1,737 5.0 -6.0°
Maximum altitude 23:18:15 36° 93° (E) 830 3.3 -6.8°
Drops below altitude 10° 23:21:44 10° 26° (NNE) 1,729 5.4 -7.6°
Sets 23:23:58 0° 17° (NNE) 2,613 6.4 -8.1°
